[[{"header":{"parameterUnit":"m.s-1","parameterCategory":1,"la1":30.2991,"la2":30.254,"lo1":-89.0895,"lo2":-89.0444,"dy":0.0017,"dx":0.0017,"nx":28,"ny":28,"refTime":"2023-09-05T03:00:00:Z","depth":0,"parameterNumber":2,"parameterNumberName":"U-component_of_WINDS"},"data":[0,0,0,0,0,0,0,0,0,0,0,0,0,0,0,0,0,0,0,0,0,0,0,0,0,0,0,0,0,0,0,0,0,0,0,0,0,0,0,0,0,0,0,0,0,0,0,0,0,0,0,0,0,0,0,0,0,0,-5.068,-5.0681,0,-5.0713,-5.0713,-5.0713,-5.0645,-5.0642,-5.064,-5.0638,-5.0669,-5.0672,-5.0674,0,0,0,0,0,0,0,0,0,0,0,0,0,-5.0557,-5.056,-5.068,-5.0681,-5.0681,-5.0712,-5.0713,-5.0713,-5.0645,-5.0642,-5.064,-5.0637,-5.0668,-5.0671,-5.0675,0,0,0,0,0,0,0,0,0,0,0,0,0,-5.0602,-5.0561,-5.068,-5.0651,-5.0648,-5.0712,-5.0713,-5.0713,-5.0646,-5.0642,-5.0639,-5.0636,-5.0667,-5.0671,-5.0675,-5.0768,0,0,-5.0688,-5.069,0,0,0,0,0,0,0,0,-5.06,-5.0607,-5.0655,-5.0653,-5.065,-5.0671,-5.0681,-5.0732,-5.0646,-5.0647,-5.0638,-5.0634,-5.0672,-5.0676,-5.0689,-5.077,-5.0771,-5.0689,-5.0691,-5.0693,-5.0694,0,0,0,0,0,0,0,-5.0597,-5.0605,-5.0693,-5.0655,-5.0653,-5.0635,-5.0638,-5.069,-5.0677,-5.0646,-5.0641,-5.0646,-5.067,-5.0685,-5.0689,-5.0771,-5.0689,-5.0692,-5.0695,-5.0697,-5.0929,-5.0933,0,0,0,0,0,0,-5.0598,-5.0603,-5.0692,-5.0694,-5.0616,-5.064,-5.0643,-5.0668,-5.0677,-5.0675,-5.0649,-5.0643,-5.0679,-5.0684,-5.069,-5.0798,-5.0693,-5.0697,-5.07,-5.0926,-5.093,-5.0934,0,0,0,0,0,0,-5.0595,-5.0606,-5.069,-5.0647,-5.0656,-5.0646,-5.0674,-5.067,-5.0685,-5.0679,-5.0676,-5.0667,-5.0677,-5.0684,-5.0749,-5.0798,-5.0699,-5.0703,-5.0922,-5.0927,-5.0932,-5.1017,0,0,0,0,0,0,-5.0592,-5.0606,-5.0641,-5.0648,-5.0659,-5.075,-5.0677,-5.0673,-5.0693,-5.0685,-5.0695,-5.0693,-5.0675,-5.0743,-5.0754,-5.0803,-5.0706,-5.0917,-5.0924,-5.093,-5.1009,-5.1024,-5.1037,0,0,0,0,0,-5.0588,-5.0663,-5.0644,-5.0655,-5.0703,-5.0753,-5.0759,-5.0737,-5.0697,-5.0732,-5.0729,-5.0693,-5.0792,-5.0751,-5.0762,-5.0813,-5.0914,-5.0922,-5.093,-5.1003,-5.1021,-5.1037,0,0,0,0,0,0,-5.0661,-5.0664,-5.0642,-5.0722,-5.0738,-5.0741,-5.0785,-5.0757,-5.0784,-5.0776,-5.0747,-5.075,-5.082,-5.0823,-5.0777,-5.0903,-5.0846,-5.0857,-5.0898,-5.0915,-5.0929,-5.0925,-5.071,0,0,0,0,0,-5.0687,-5.0728,-5.0728,-5.0799,-5.0808,-5.0796,-5.0816,-5.0798,-5.0813,-5.0819,-5.082,-5.0835,-5.087,-5.0893,-5.0925,-5.1011,-5.1011,-5.1051,-5.1065,-5.1076,-5.1085,-5.1129,-5.1147,-5.096,-5.096,-5.096,0,0,-5.074,-5.0747,-5.0774,-5.0814,-5.0824,-5.0865,-5.0801,-5.0848,-5.0879,-5.0826,-5.0887,-5.0889,-5.0904,-5.098,-5.1013,-5.0985,-5.1137,-5.1087,-5.1096,-5.1098,-5.1139,-5.1157,-5.1173,-5.0966,-5.0965,-5.0964,0,0,-5.0858,-5.0868,-5.0927,-5.0939,-5.0956,-5.0947,-5.0962,-5.097,-5.0969,-5.1031,-5.0992,-5.1028,-5.1088,-5.11,-5.1114,-5.1239,-5.1206,-5.125,-5.1321,-5.1364,-5.1379,-5.1392,-5.1434,-5.145,-5.1259,-5.1259,-5.126,0,-5.0921,-5.0983,-5.0961,-5.1011,-5.1029,-5.0985,-5.1044,-5.1057,-5.1083,-5.1096,-5.1064,-5.1139,-5.1146,-5.1224,-5.1254,-5.1268,-5.1282,-5.1247,-5.1379,-5.1392,-5.1403,-5.1443,-5.1459,-5.1264,-5.1264,-5.1263,-5.1263,0,-5.106,-5.1104,-5.115,-5.1176,-5.12,-5.1255,-5.124,-5.1267,-5.1248,-5.1242,-5.1305,-5.1313,-5.1345,-5.1363,-5.1344,-5.1437,-5.1419,-5.1384,-5.1325,-5.1426,-5.1463,-5.1479,-5.1272,-5.127,-5.1268,-5.1267,0,0,-5.1222,-5.1237,-5.1254,-5.1265,-5.1281,-5.1314,-5.1367,-5.1399,-5.1422,-5.1442,-5.1484,-5.1537,-5.1505,-5.1521,-5.1504,-5.1543,-5.1638,-5.1502,-5.1502,-5.1525,-5.174,-5.1764,-5.1783,-5.1618,-5.1621,-5.1624,-5.1738,0,-5.1337,-5.1427,-5.1409,-5.1498,-5.1537,-5.1497,-5.1542,-5.1557,-5.1554,-5.1587,-5.1583,-5.162,-5.1576,-5.1585,-5.1622,-5.1619,-5.1681,-5.1611,-5.1655,-5.1657,-5.165,-5.1802,-5.1828,-5.1936,-5.1752,-5.1755,-5.1757,0,-5.1482,-5.1508,-5.1601,-5.161,-5.1626,-5.1667,-5.1695,-5.1728,-5.1743,-5.1738,-5.1757,-5.1733,-5.1784,-5.1728,-5.1798,-5.1751,-5.1769,-5.177,-5.1774,-5.1775,-5.1711,-5.1805,-5.197,-5.1985,-5.178,-5.1778,-5.1776,0,-5.1588,-5.1647,-5.1709,-5.1721,-5.1734,-5.1764,-5.1771,-5.1783,-5.1804,-5.1829,-5.1841,-5.1872,-5.1888,-5.1912,-5.1896,-5.1857,-5.1968,-5.191,-5.1964,-5.1964,-5.1986,-5.1985,-5.2153,-5.2003,-5.2002,-5.2002,-5.2002,0,-5.1717,-5.1774,-5.1757,-5.1796,-5.1859,-5.1838,-5.1901,-5.1903,-5.1915,-5.1952,-5.192,-5.1955,-5.1934,-5.1968,-5.1956,-5.2015,-5.2023,-5.2019,-5.2015,-5.2021,-5.2021,-5.2029,-5.2021,-5.2006,-5.2005,-5.2004,-5.2004,0,-5.1845,-5.1836,-5.1901,-5.1909,-5.1913,-5.1959,-5.1965,-5.2,-5.1996,-5.2043,-5.2053,-5.2046,-5.2084,-5.2072,-5.2113,-5.2105,-5.2179,-5.2166,-5.2173,-5.2169,-5.2222,-5.2217,-5.2401,-5.2423,-5.226,-5.2262,-5.2263,0,-5.1926,-5.197,-5.1983,-5.2006,-5.2015,-5.2053,-5.2074,-5.2056,-5.2079,-5.21,-5.2133,-5.2168,-5.2195,-5.2258,-5.2256,-5.2287,-5.2273,-5.2336,-5.2277,-5.2282,-5.2271,-5.2268,-5.2272,-5.2346,-5.2348,-5.235,-5.2351,0,-5.2071,-5.2065,-5.2096,-5.2127,-5.2153,-5.2176,-5.2196,-5.2217,-5.22,-5.2228,-5.2267,-5.2288,-5.233,-5.2366,-5.2394,-5.24,-5.2373,-5.237,-5.2383,-5.2388,-5.239,-5.2388,-5.2202,-5.2365,-5.2364,-5.2363,-5.2362,-5.2361,-5.2176,-5.2213,-5.2228,-5.2264,-5.2278,-5.2297,-5.2331,-5.2331,-5.2363,-5.2396,-5.2384,-5.2429,-5.2443,-5.2478,-5.2489,-5.2523,-5.2498,-5.2519,-5.2523,-5.2528,-5.2534,-5.2387,-5.2528,-5.2528,-5.2527,-5.2527,-5.2527,0,-5.2317,-5.2325,-5.2359,-5.2389,-5.2417,-5.2391,-5.2412,-5.2437,-5.2477,-5.2494,-5.2521,-5.2566,-5.26,-5.2602,-5.2633,-5.266,-5.2648,-5.2669,-5.2665,-5.2667,-5.2555,-5.2539,-5.2678,-5.2678,-5.2678,-5.2678,-5.2678,-5.2678,-5.2394,-5.2454,-5.2449,-5.2515,-5.2523,-5.2566,-5.258,-5.2598,-5.2611,-5.2662,-5.2691,-5.2692,-5.2702,-5.2735,-5.2765,-5.2764,-5.2776,-5.2802,-5.2796,-5.269,-5.2675,-5.2661,-5.2645,-5.2805,-5.2805,-5.2905,-5.2906,-5.2907]},{"header":{"parameterUnit":"m.s-1","parameterCategory":1,"la1":30.2991,"la2":30.254,"lo1":-89.0895,"lo2":-89.0444,"dy":0.0017,"dx":0.0017,"nx":28,"ny":28,"refTime":"2023-09-05T03:00:00:Z","depth":0,"parameterNumber":3,"parameterNumberName":"V-component_of_WINDS"},"data":[0,0,0,0,0,0,0,0,0,0,0,0,0,0,0,0,0,0,0,0,0,0,0,0,0,0,0,0,0,0,0,0,0,0,0,0,0,0,0,0,0,0,0,0,0,0,0,0,0,0,0,0,0,0,0,0,0,0,4.3664,4.3664,0,4.3681,4.3681,4.3682,4.3634,4.3633,4.3631,4.363,4.3646,4.3647,4.3649,0,0,0,0,0,0,0,0,0,0,0,0,0,4.3587,4.3589,4.3664,4.3664,4.3664,4.3681,4.3681,4.3682,4.3635,4.3633,4.3631,4.3629,4.3645,4.3647,4.3649,0,0,0,0,0,0,0,0,0,0,0,0,0,4.3614,4.359,4.3664,4.3643,4.3641,4.3681,4.3681,4.3682,4.3635,4.3633,4.3631,4.3628,4.3644,4.3647,4.365,4.371,0,0,4.3658,4.3659,0,0,0,0,0,0,0,0,4.3613,4.3617,4.3646,4.3644,4.3642,4.3653,4.366,4.3691,4.3635,4.3637,4.363,4.3627,4.365,4.3652,4.366,4.3711,4.3712,4.3658,4.366,4.3661,4.3662,0,0,0,0,0,0,0,4.3611,4.3616,4.367,4.3646,4.3644,4.3632,4.3633,4.3666,4.3656,4.3637,4.3633,4.3636,4.3649,4.3658,4.366,4.3712,4.3658,4.366,4.3662,4.3663,4.3814,4.3816,0,0,0,0,0,0,4.3612,4.3615,4.367,4.3671,4.3622,4.3635,4.3637,4.3652,4.3655,4.3653,4.3638,4.3634,4.3654,4.3657,4.366,4.3731,4.3661,4.3663,4.3665,4.3811,4.3814,4.3817,0,0,0,0,0,0,4.3611,4.3618,4.3669,4.3642,4.3648,4.3639,4.3656,4.3654,4.3662,4.3656,4.3654,4.3649,4.3652,4.3657,4.3698,4.3731,4.3665,4.3667,4.3808,4.3812,4.3815,4.3874,0,0,0,0,0,0,4.3609,4.3617,4.364,4.3643,4.3649,4.3708,4.3658,4.3655,4.3667,4.3662,4.3666,4.3664,4.3651,4.3695,4.3701,4.3734,4.3669,4.3805,4.381,4.3814,4.3869,4.3879,4.3888,0,0,0,0,0,4.3606,4.3656,4.3642,4.3649,4.3678,4.3709,4.3713,4.3697,4.367,4.3693,4.3689,4.3664,4.3727,4.3699,4.3706,4.374,4.3803,4.3809,4.3814,4.3865,4.3877,4.3887,0,0,0,0,0,0,4.3656,4.3655,4.364,4.3692,4.3701,4.3701,4.373,4.3711,4.3727,4.3721,4.37,4.3702,4.3747,4.3748,4.3717,4.3799,4.376,4.3767,4.3797,4.3808,4.3817,4.3816,4.3671,0,0,0,0,0,4.3673,4.3699,4.3697,4.3743,4.3749,4.3739,4.3752,4.3739,4.3747,4.3751,4.375,4.3758,4.378,4.3794,4.3814,4.3869,4.3869,4.3896,4.3905,4.3913,4.3919,4.3948,4.396,4.3834,4.3834,4.3834,0,0,4.3708,4.3711,4.3729,4.3753,4.3759,4.3786,4.3742,4.3772,4.3792,4.3755,4.3794,4.3794,4.3802,4.3851,4.3873,4.3853,4.3954,4.392,4.3926,4.3928,4.3955,4.3967,4.3978,4.3838,4.3837,4.3837,0,0,4.3786,4.3791,4.383,4.3837,4.3847,4.384,4.385,4.3853,4.3852,4.3892,4.3865,4.3888,4.3925,4.3932,4.3941,4.4023,4.4001,4.403,4.4078,4.4107,4.4117,4.4126,4.4155,4.4165,4.4036,4.4037,4.4037,0,4.3828,4.3868,4.3852,4.3885,4.3896,4.3866,4.3905,4.3912,4.3927,4.3936,4.3914,4.3961,4.3964,4.4014,4.4035,4.4043,4.4053,4.4029,4.4117,4.4126,4.4134,4.4161,4.4172,4.404,4.404,4.4039,4.4039,0,4.392,4.3948,4.3978,4.3995,4.401,4.4046,4.4035,4.4052,4.4038,4.4034,4.4075,4.4078,4.4098,4.4109,4.4095,4.4158,4.4145,4.4121,4.4081,4.4149,4.4174,4.4185,4.4045,4.4044,4.4043,4.4042,0,0,4.4027,4.4036,4.4047,4.4055,4.4064,4.4085,4.412,4.414,4.4155,4.4167,4.4195,4.4228,4.4206,4.4216,4.4203,4.4229,4.4294,4.4201,4.4201,4.4218,4.4362,4.4379,4.4391,4.428,4.4281,4.4283,4.4361,0,4.4104,4.4163,4.4151,4.4209,4.4235,4.4207,4.4237,4.4246,4.4243,4.4264,4.4261,4.4284,4.4254,4.426,4.4284,4.4281,4.4322,4.4275,4.4304,4.4305,4.4302,4.4405,4.4423,4.4496,4.437,4.4372,4.4373,0,4.42,4.4217,4.4279,4.4284,4.4295,4.4322,4.434,4.4361,4.437,4.4366,4.4378,4.4361,4.4395,4.4356,4.4402,4.437,4.4382,4.4382,4.4385,4.4386,4.4343,4.4407,4.4519,4.453,4.4389,4.4388,4.4386,0,4.4272,4.431,4.4352,4.4359,4.4367,4.4387,4.4391,4.4398,4.4412,4.4427,4.4436,4.4455,4.4465,4.448,4.4469,4.4442,4.4516,4.4477,4.4513,4.4514,4.4529,4.4528,4.4643,4.4538,4.4538,4.4538,4.4538,0,4.4358,4.4396,4.4384,4.441,4.4452,4.4437,4.4479,4.448,4.4487,4.4512,4.4489,4.4513,4.4496,4.4518,4.451,4.4549,4.4554,4.4551,4.4548,4.4552,4.4553,4.4559,4.4553,4.4541,4.454,4.454,4.4539,0,4.4444,4.4438,4.4481,4.4486,4.4488,4.4519,4.4523,4.4546,4.4542,4.4574,4.4581,4.4575,4.46,4.459,4.4616,4.461,4.466,4.4651,4.4657,4.4654,4.4691,4.4687,4.4813,4.4828,4.4715,4.4716,4.4717,0,4.4499,4.4528,4.4536,4.4552,4.4558,4.4583,4.4597,4.4584,4.4599,4.4613,4.4635,4.4658,4.4676,4.4717,4.4714,4.4735,4.4725,4.4768,4.4728,4.4732,4.4725,4.4723,4.4725,4.4775,4.4777,4.4778,4.4779,0,4.4596,4.4592,4.4614,4.4634,4.4652,4.4667,4.4681,4.4694,4.4682,4.4701,4.4726,4.474,4.4768,4.4791,4.481,4.4813,4.4794,4.4792,4.4801,4.4805,4.4807,4.4806,4.4678,4.4788,4.4787,4.4787,4.4786,4.4786,4.4668,4.4693,4.4703,4.4728,4.4737,4.475,4.4772,4.4772,4.4794,4.4816,4.4807,4.4837,4.4846,4.4868,4.4875,4.4897,4.4881,4.4894,4.4898,4.4901,4.4906,4.4805,4.4901,4.4901,4.49,4.49,4.49,0,4.4764,4.4769,4.4793,4.4812,4.4832,4.4814,4.4828,4.4845,4.4872,4.4883,4.4901,4.4931,4.4954,4.4954,4.4975,4.4993,4.4985,4.4999,4.4997,4.4998,4.492,4.4909,4.5005,4.5005,4.5005,4.5005,4.5005,4.5005,4.4816,4.4857,4.4854,4.4899,4.4904,4.4934,4.4944,4.4956,4.4964,4.4999,4.5018,4.5018,4.5025,4.5046,4.5066,4.5065,4.5074,4.5091,4.5087,4.5014,4.5003,4.4993,4.4983,4.5093,4.5093,4.5163,4.5164,4.5164]}]]